{"data":{"norad_id":68065,"epoch":"2026-05-25T03:16:16.168800Z","epoch_age_seconds":59359,"freshness":"FRESH","line1":"1 68065U 26041AB  26145.13629825  .00012807  00000+0  44367-3 0  9996","line2":"2 68065  53.1607  54.7038 0001306  83.9801 276.1349 15.30207363 13090","mean_motion":15.30207363,"eccentricity":0.0001306,"inclination_deg":53.1607,"raan_deg":54.7038,"arg_perigee_deg":83.9801,"mean_anomaly_deg":276.1349,"bstar":0.00044367,"rev_number":1309,"period_min":94.104892893526,"perigee_km":474.29804000758,"apogee_km":476.08812982576,"semimajor_km":6853.3300849167,"source":"CELESTRAK","updated_at":"2026-05-25T13:38:21.815957Z"}}